Starlink 11349

operational
NORAD ID: 61544 Int'l Des: 2024-184 Owner: SPXS Country: US Constellation: starlink
LEOCIRCULAR

Über Starlink 11349

Beschreibung wird geladen...

Live-Position

3D-Globus wird geladen...

Nächste Überflüge

Höhenverlauf

Altitude vs Time

uPlot chart will show altitude changes over time

Zweizeiliger Elementsatz

1 61544U 24184N 26035.25223247 -.00000322 00000-0 22016-5 0 9996
2 61544 53.1581 41.2393 0001396 73.0940 287.0231 15.69711032 75166
Epoch: 4. Feb. 2026 • Age: 26 hours

Aktueller Status

Höhe 373.8 km
Geschwindigkeit 7.68 km/s
Subsatellitenpunkt -40.65°S, 103.7°E
Startdatum 15. Okt. 2024
Alter 1.3 years
Typ internet

Technische Details

Klassifizierung Payload
Masse 960.00 kg
Trockenmasse 910.00 kg
Gesamtmasse 960.00 kg
Länge 0.30 m
Durchmesser 4.10 m
Spannweite 29.00 m
Form Box + pan
Hersteller SPXS
Bus-Typ Starlink V2MD
Phasenstatus In Orbit
Besitzer/Staat SPXS/US

Große Konstellationen

Loading constellations...